User: anonymous   Login
Location: Caltech
(34.1382°N, 118.1253°W)
Time: 18:34:49
(UTC-07:00)
Language:

Cosmos 1733 Rocket - Orbit

View from above orbital plane
View from above orbital plane
View from above satellite
View from above satellite

Ground track
Ground track

The orbit data is extracted from the following two-line orbital elements,

1 16612U 86018B   16271.82625876  .00000143  00000-0  14297-4 0  9995
2 16612  82.5195 182.5760 0016394 301.9771 117.5616 14.84105918552547
Epoch (UTC): 27 September 2016 19:49:48
Eccentricity: 0.0016394
inclination: 82.5195°
perigee height: 605 km
apogee height: 628 km
right ascension of ascending node: 182.5760°
argument of perigee: 301.9771°
revolutions per day: 14.84105918
mean anomaly at epoch: 117.5616°
orbit number at epoch: 55254

The dashed part of the orbit path shows where the satellite is in the earth's shadow,  

DLR